Location: *
(37.5724°S, 58.0067°E)
Time: 21:20:02
(UTC+00:00)

N. Korean satellite - Visible Passes

Search period start: 30 November 2020 00:00
Search period end: 10 December 2020 00:00
Orbit: 453 x 504 km, 97.2° (Epoch: 29 November)

Date Brightness Start Highest point End Pass type
(mag) Time Alt. Az. Time Alt. Az. Time Alt. Az.
30 Nov 10.1 23:50:13 10° E 23:52:07 14° ESE 23:54:00 10° SE visible
04 Dec 9.7 00:03:35 10° ENE 00:06:19 20° ESE 00:09:04 10° SSE visible
07 Dec 10.0 23:52:17 10° ENE 23:54:19 14° ESE 23:56:20 10° SE visible
